Oceana NAS, VA

11:44 AM EDT on March 30, 2017 (GMT -0400)
Oceana Naval Air Station

Weather History for KNTU - October, 2012

Change the Weather History Date:

Wednesday, October 24, 2012

  Actual Average Record
Temperature  
Mean Temperature 68 °F -  
Max Temperature 81 °F 65 °F 84 °F (2007)
Min Temperature 55 °F 47 °F 36 °F (1997)
Cooling Degree Days 2    
Growing Degree Days 18 (Base 50)    
Moisture  
Dew Point 54 °F    
Average Humidity 69    
Maximum Humidity 89    
Minimum Humidity 42    
Precipitation  
Precipitation 0.00 in - - ()
Sea Level Pressure  
Sea Level Pressure 30.13 in    
Wind  
Wind Speed 6 mph (SW)    
Max Wind Speed 10 mph    
Max Gust Speed -    
Visibility 10 miles    
Events      
Averages and records for this station are not official NWS values.
T = Trace of Precipitation, MM = Missing Value Source: NWS Daily Summary

Daily Weather History Graph

Daily Weather History Graph

Search for Another Location

Airport or City:

Trip Planner

Search our weather history database for the weather conditions in past years. The results will help you decide how hot, cold, wet, or windy it might be!

Date:

Astronomy

Oct. 24, 2012 Rise Set
Actual Time 7:20 AM EDT 6:15 PM EDT
Civil Twilight 6:54 AM EDT 6:41 PM EDT
Nautical Twilight 6:23 AM EDT 7:12 PM EDT
Astronomical Twilight 5:53 AM EDT 7:42 PM EDT
Moon 3:23 PM EDT (10/24) 2:20 AM EDT (10/24)
Length of Visible Light 11h 47m
Length of Day
10h 54m
Waxing Gibbous, 76% of the Moon is Illuminated
Oct 24
Waxing Gibbous
Oct 29
Full
Nov 6
Last Quarter
Nov 13
New
Nov 20
First Quarter

Hourly Weather History & Observations

Time (EDT) Temp. Heat Index Dew Point Humidity Pressure Visibility Wind Dir Wind Speed Gust Speed Precip Events Conditions
12:56 AM 61.0 °F - 53.1 °F 75% 30.14 in 10.0 mi SSW 5.8 mph - N/A   Clear
1:56 AM 55.9 °F - 52.0 °F 87% 30.15 in 10.0 mi SW 4.6 mph - N/A   Clear
2:56 AM 55.0 °F - 52.0 °F 89% 30.14 in 10.0 mi SW 4.6 mph - N/A   Clear
3:56 AM 55.9 °F - 52.0 °F 87% 30.14 in 10.0 mi WSW 4.6 mph - N/A   Clear
4:56 AM 57.9 °F - 53.1 °F 84% 30.14 in 10.0 mi SW 9.2 mph - N/A   Clear
5:56 AM 57.0 °F - 52.0 °F 83% 30.14 in 10.0 mi SW 6.9 mph - N/A   Clear
6:56 AM 57.9 °F - 52.0 °F 81% 30.15 in 10.0 mi SW 6.9 mph - N/A   Partly Cloudy
7:56 AM 55.9 °F - 51.1 °F 84% 30.16 in 10.0 mi WSW 5.8 mph - N/A   Scattered Clouds
8:56 AM 63.0 °F - 53.1 °F 70% 30.17 in 10.0 mi WSW 9.2 mph - N/A   Scattered Clouds
9:56 AM 68.0 °F - 54.0 °F 61% 30.16 in 10.0 mi WSW 6.9 mph - N/A   Scattered Clouds
10:56 AM 73.0 °F - 54.0 °F 51% 30.15 in 10.0 mi WSW 8.1 mph - N/A   Scattered Clouds
11:56 AM 75.9 °F - 54.0 °F 46% 30.13 in 10.0 mi SW 10.4 mph - N/A   Scattered Clouds
12:56 PM 75.9 °F - 54.0 °F 46% 30.11 in 10.0 mi West 6.9 mph - N/A   Mostly Cloudy
1:56 PM 79.0 °F - 54.0 °F 42% 30.09 in 10.0 mi SW 6.9 mph - N/A   Mostly Cloudy
2:56 PM 80.1 °F 80.2 °F 55.9 °F 43% 30.07 in 10.0 mi West 9.2 mph - N/A   Mostly Cloudy
3:56 PM 79.0 °F - 55.0 °F 44% 30.07 in 10.0 mi WSW 9.2 mph - N/A   Mostly Cloudy
4:56 PM 79.0 °F - 55.0 °F 44% 30.08 in 10.0 mi SW 9.2 mph - N/A   Scattered Clouds
5:56 PM 75.9 °F - 55.9 °F 50% 30.09 in 10.0 mi SW 4.6 mph - N/A   Scattered Clouds
6:56 PM 66.0 °F - 57.9 °F 75% 30.10 in 10.0 mi NNE 3.5 mph - N/A   Scattered Clouds
7:56 PM 66.0 °F - 57.9 °F 75% 30.11 in 10.0 mi Calm Calm - N/A   Scattered Clouds
8:56 PM 64.0 °F - 57.9 °F 80% 30.12 in 10.0 mi Calm Calm - N/A   Scattered Clouds
9:56 PM 62.1 °F - 57.9 °F 86% 30.12 in 10.0 mi Calm Calm - N/A   Scattered Clouds
10:56 PM 61.0 °F - 57.0 °F 87% 30.13 in 10.0 mi Calm Calm - N/A   Partly Cloudy
11:56 PM 64.0 °F - 55.9 °F 75% 30.14 in 10.0 mi SSW 8.1 mph - N/A   Clear